Weather in Novoselovka

Russia / Saratov Oblast     51°56′47″N   44°16′11″E
temp.,
°C
wind,
m/s
gust,
m/s
humid.,
%
clouds,
%
prec.,
mm/h
press.,
hPa
HPBL,
m
19 january, wed
wed1901:00−2s5119693 0.4 1010380
04:00−2sse3797100 0.6 1010351
07:00−2s4897100 0.6 1011352
10:00−8ssw499867 0.6 1014127
13:00−8ssw36955 0.0 1016154
16:00−9s36955 0.0 1017107
19:00−16sw2210082 0.0 10189
22:00−17ssw22100100 0.0 101911
20 january, thu
thu2001:00−18s22100100 0.0 102010
04:00−16sse22100100 0.0 102013
07:00−18s22100100 0.0 102110
10:00−16s33100100 0.0 102142
13:00−11ssw359765 0.0 1021131
16:00−13ssw229723 0.0 102016
19:00−17s339965 0.0 102127
22:00−17s359972 0.0 102150
21 january, fri
fri2101:00−18s3510089 0.0 102155
04:00−17s37100100 0.0 102174
07:00−16sse48100100 0.0 102095
10:00−16sse410100100 0.1 1020133
13:00−11sse61495100 0.0 1019338
16:00−8sse71688100 0.0 1017462
19:00−8sse81788100 0.0 1016455
22:00−8sse81893100 0.1 1015504
22 january, sat
sat2201:00−7sse71595100 0.6 1014467
04:00−6sse61296100 2.4 1015402
07:00−6se51095100 0.4 1015261
10:00−5se4797100 0.7 1016216
13:00−3ese4997100 1.8 1017399
16:00−2sse81595100 2.9 1016765
19:00−2sse71596100 1.6 1018686
22:00−3sse71396100 2.0 1019585
23 january, sun
sun2301:00−3s4897100 1.1 1021447
04:00−4sw1298100 2.5 1023114
07:00−5nnw0098100 1.1 102424
10:00−6e1198100 1.4 102720
13:00−3se2395100 0.3 1028244
16:00−3ese3597100 1.1 1029296
19:00−4ese4896100 0.9 1030317
22:00−6ese51196100 3.1 1031331